Springfield, MO

3:05 AM CST on February 13, 2016 (GMT -0600)
Springfield-Branson Regional

Weather History for KSGF - January, 2014

Change the Weather History Date:

Wednesday, January 15, 2014

  Actual Average Record
Temperature  
Mean Temperature 27 °F 32 °F  
Max Temperature 34 °F 43 °F 70 °F (1901)
Min Temperature 19 °F 22 °F -11 °F (1888)
Degree Days  
Heating Degree Days 38 33  
Month to date heating degree days 548 492  
Since 1 July heating degree days 2471 2302  
Cooling Degree Days 0 0  
Month to date cooling degree days 0 0  
Year to date cooling degree days 0 0  
Moisture  
Dew Point 10 °F    
Average Humidity 48    
Maximum Humidity 67    
Minimum Humidity 28    
Precipitation  
Precipitation 0.00 in 0.08 in 0.62 in (1935)
Month to date precipitation 1.26 1.26  
Year to date precipitation 1.26 1.26  
Snow  
Snow 0.00 in - - ()
Month to date snowfall 9.5  
Since 1 July snowfall 23.0  
Snow Depth 0.00 in    
Sea Level Pressure  
Sea Level Pressure 30.16 in    
Wind  
Wind Speed 10 mph (WNW)    
Max Wind Speed 22 mph    
Max Gust Speed 26 mph    
Visibility 10 miles    
Events      
T = Trace of Precipitation, MM = Missing Value Source: NWS Daily Summary

Daily Weather History Graph

Daily Weather History Graph

Search for Another Location

Airport or City:

Trip Planner

Search our weather history database for the weather conditions in past years. The results will help you decide how hot, cold, wet, or windy it might be!

Date:

Astronomy

Jan. 15, 2014 Rise Set
Actual Time 7:26 AM CST 5:19 PM CST
Civil Twilight 6:57 AM CST 5:48 PM CST
Nautical Twilight 6:25 AM CST 6:20 PM CST
Astronomical Twilight 5:54 AM CST 6:51 PM CST
Moon 5:16 PM CST (1/15) 6:44 AM CST (1/15)
Length of Visible Light 10h 50m
Length of Day
9h 53m
Full, 100% of the Moon is Illuminated
Jan 15
Full
Jan 15
Full
Jan 23
Last Quarter
Jan 30
New
Feb 6
First Quarter

Hourly Weather History & Observations

Time (CST) Temp. Windchill Dew Point Humidity Pressure Visibility Wind Dir Wind Speed Gust Speed Precip Events Conditions
12:52 AM 24.1 °F 15.2 °F 12.9 °F 62% 30.20 in 10.0 mi NNW 8.1 mph - N/A   Clear
1:52 AM 26.1 °F 14.5 °F 10.9 °F 53% 30.21 in 10.0 mi NNW 13.8 mph - N/A   Mostly Cloudy
2:52 AM 24.1 °F 18.2 °F 10.9 °F 57% 30.21 in 10.0 mi WNW 4.6 mph - N/A   Clear
3:52 AM 24.1 °F 14.4 °F 10.9 °F 57% 30.21 in 10.0 mi NW 9.2 mph - N/A   Clear
4:52 AM 21.9 °F 13.4 °F 10.9 °F 63% 30.20 in 10.0 mi NW 6.9 mph - N/A   Clear
5:52 AM 19.9 °F 12.1 °F 10.0 °F 65% 30.22 in 10.0 mi NW 5.8 mph - N/A   Clear
6:52 AM 19.9 °F 8.6 °F 10.0 °F 65% 30.22 in 10.0 mi NW 10.4 mph - N/A   Clear
7:52 AM 19.9 °F 7.9 °F 7.0 °F 57% 30.24 in 10.0 mi NNW 11.5 mph - N/A   Clear
8:52 AM 21.9 °F 9.2 °F 7.0 °F 53% 30.26 in 10.0 mi NW 13.8 mph - N/A   Clear
9:52 AM 25.0 °F 11.3 °F 8.1 °F 49% 30.27 in 10.0 mi NW 18.4 mph - N/A   Clear
10:52 AM 27.0 °F 18.0 °F 8.1 °F 45% 30.27 in 10.0 mi NNW 9.2 mph - N/A   Clear
11:52 AM 28.9 °F 19.2 °F 5.0 °F 36% 30.25 in 10.0 mi NW 11.5 mph - N/A   Clear
12:52 PM 30.9 °F 21.7 °F 5.0 °F 33% 30.21 in 10.0 mi West 11.5 mph 17.3 mph N/A   Clear
1:52 PM 30.9 °F 24.3 °F 3.9 °F 32% 30.18 in 10.0 mi WNW 6.9 mph - N/A   Clear
2:52 PM 33.1 °F 24.4 °F 3.9 °F 29% 30.18 in 10.0 mi WSW 11.5 mph - N/A   Clear
3:52 PM 33.1 °F 26.1 °F 5.0 °F 31% 30.16 in 10.0 mi West 8.1 mph - N/A   Clear
4:52 PM 33.1 °F 27.7 °F 10.0 °F 38% 30.14 in 10.0 mi West 5.8 mph - N/A   Clear
5:52 PM 27.0 °F 21.6 °F 12.0 °F 53% 30.13 in 10.0 mi SSW 4.6 mph - N/A   Partly Cloudy
6:52 PM 28.0 °F 20.8 °F 12.9 °F 53% 30.09 in 10.0 mi South 6.9 mph - N/A   Clear
7:52 PM 30.0 °F 21.7 °F 15.1 °F 54% 30.08 in 10.0 mi SSE 9.2 mph - N/A   Overcast
8:52 PM 30.9 °F 22.8 °F 16.0 °F 54% 30.04 in 10.0 mi South 9.2 mph - N/A   Overcast
9:52 PM 32.0 °F 22.1 °F 16.0 °F 52% 30.01 in 10.0 mi South 13.8 mph - N/A   Mostly Cloudy
10:52 PM 32.0 °F 22.5 °F 17.1 °F 54% 29.97 in 10.0 mi South 12.7 mph - N/A   Mostly Cloudy
11:52 PM 34.0 °F 24.2 °F 18.0 °F 52% 29.93 in 10.0 mi South 15.0 mph - N/A   Overcast